This is the latest recevied weather packets stored in our database for station/object N7CW. If no packets are shown the sender has not sent any weather packets the latest 10 day(s).
| Time | Temp. | Humidity | Pressure | Rain* | Wind** | Luminosity | Snow |
|---|---|---|---|---|---|---|---|
| 1777832741 | 21.11° C | 34% | 1017.2 hPa | 0 mm | - | 911 W/m² | - |
| 1777832439 | 20.56° C | 35% | 1017.4 hPa | 0 mm | - | 201 W/m² | - |
| 1777832135 | 20° C | 37% | 1017.4 hPa | 0 mm | - | 192 W/m² | - |
| 1777831832 | 21.11° C | 35% | 1017.4 hPa | 0 mm | - | 190 W/m² | - |
| 1777831529 | 21.67° C | 34% | 1017.4 hPa | 0 mm | - | 958 W/m² | - |
| 1777831226 | 21.11° C | 35% | 1017.2 hPa | 0 mm | - | 831 W/m² | - |
| 1777830924 | 22.78° C | 35% | 1017.4 hPa | 0 mm | - | 173 W/m² | - |
| 1777830620 | 21.67° C | 34% | 1017.3 hPa | 0 mm | - | 786 W/m² | - |
| 1777830318 | 21.67° C | 35% | 1017.4 hPa | 0 mm | - | 768 W/m² | - |
| 1777830014 | 22.22° C | 33% | 1017.3 hPa | 0 mm | - | 732 W/m² | - |
| 1777829709 | 21.67° C | 34% | 1017.4 hPa | 0 mm | - | 759 W/m² | - |
| 1777829406 | 21.67° C | 34% | 1017.5 hPa | 0 mm | - | 738 W/m² | - |
| 1777829104 | 21.67° C | 34% | 1017.5 hPa | 0 mm | - | 738 W/m² | - |
| 1777828800 | 21.11° C | 35% | 1017.5 hPa | 0 mm | - | 715 W/m² | - |
| 1777828497 | 21.11° C | 35% | 1017.7 hPa | 0 mm | - | 701 W/m² | - |
| 1777828194 | 20.56° C | 36% | 1017.5 hPa | 0 mm | - | 692 W/m² | - |
| 1777827890 | 20.56° C | 36% | 1017.7 hPa | 0 mm | - | 697 W/m² | - |
| 1777827582 | 21.67° C | 35% | 1017.4 hPa | 0 mm | - | 713 W/m² | - |
| 1777827280 | 21.11° C | 35% | 1017.7 hPa | 0 mm | - | 667 W/m² | - |
| 1777826976 | 20.56° C | 36% | 1017.4 hPa | 0 mm | - | 658 W/m² | - |
| 1777826673 | 20.56° C | 36% | 1017.7 hPa | 0 mm | - | 655 W/m² | - |
| 1777826370 | 20.56° C | 38% | 1017.8 hPa | 0 mm | - | 707 W/m² | - |
| 1777826067 | 20° C | 38% | 1017.9 hPa | 0 mm | - | 415 W/m² | - |
| 1777825764 | 20° C | 38% | 1017.8 hPa | 0 mm | - | 324 W/m² | - |
| 1777825462 | 20° C | 38% | 1017.8 hPa | 0 mm | - | 239 W/m² | - |
* Rain latest hour (hover to see other rain measurements)
** Current wind speed in m/s (hover to see current wind gust speed)